Flag for El Salvador Weather past 2 weeks in San Salvador, El Salvador

Now
84 °F

Clear.


Feels Like: 86 °F
Forecast: 66 / 86 °F
Wind: 6 mph from Northeast

Location: El Salvador Intl. Airport / Comalapa

Current Time: Mar 29, 2015 at 1:13:38 AM

Latest Report: Mar 29, 2015 at 12:50 AM


Visibility: 10 mi

Pressure: 29.95 "Hg

Humidity: 51%

Dew point: 64 °F

Location of San SalvadorLocation

Historic Weather in San Salvador — Graph

°F

San Salvador temperature yesterday

Maximum temperature yesterday: 95 °F (at 10:50 AM)
Minimum temperature yesterday: 72 °F (at 4:50 AM)
Average temperature yesterday: 83 °F

Past Weeks' High & Low Weather Summary

 TemperatureHumidityPressure
High95 °F (Mar 15, 10:50 AM)94% (Mar 22, 4:50 AM)30.54 "Hg (Mar 22, 4:50 AM)
Low72 °F (Mar 15, 3:50 AM)28% (Mar 18, 10:50 AM)29.71 "Hg (Mar 14, 2:50 PM)
Average82 °F68%29.89 "Hg
* Reported Mar 13 11:50 PM — Mar 28 11:50 PM, San Salvador, Weather by CustomWeather, © 2015

Note: Actual official high and low records may vary slightly from our data, if they occured in-between our weather recording intervals... More about our weather records

Advertising

San Salvador weather history for previous 24 hours

 ConditionsComfort  
Time TempWeatherWind HumidityBarometerVisibility
11:50 PM
Sat, Mar 28
81 °FPassing clouds.6 mph66%29.95 "HgN/A
10:50 PM79 °FPassing clouds.3 mph84%29.95 "HgN/A
9:50 PM77 °FSnow. Fog.2 mph94%29.98 "Hg4 mi
8:50 PM79 °FClear.2 mph89%29.95 "Hg10 mi
7:50 PM81 °FPassing clouds.2 mph89%29.95 "HgN/A
6:50 PM82 °FPassing clouds.3 mph79%29.92 "HgN/A
5:50 PM84 °FPassing clouds.5 mph79%29.89 "HgN/A
4:50 PM86 °FPassing clouds.8 mph70%29.86 "HgN/A
3:50 PM88 °FPassing clouds.8 mph66%29.83 "HgN/A
2:50 PM88 °FPassing clouds.12 mph66%29.86 "HgN/A
1:50 PM91 °FScattered clouds.8 mph56%29.86 "HgN/A
12:50 PM91 °FScattered clouds.8 mph56%29.89 "HgN/A
11:50 AM90 °FPartly sunny.8 mph52%29.92 "HgN/A
10:50 AM95 °FPartly sunny.5 mph36%29.98 "HgN/A
9:50 AM93 °FPassing clouds.6 mph39%29.98 "HgN/A
8:50 AM91 °FPassing clouds.10 mph41%29.95 "HgN/A
7:50 AM88 °FPassing clouds.8 mph49%29.95 "HgN/A
6:50 AM77 °FPassing clouds.3 mph74%29.95 "HgN/A
5:50 AM72 °FPassing clouds.2 mph88%29.92 "HgN/A
4:50 AM72 °FClear.2 mph88%29.89 "Hg10 mi
3:50 AM75 °FClear.2 mph78%29.89 "Hg10 mi
2:50 AM73 °FClear.3 mph83%29.89 "Hg10 mi
1:50 AM75 °FClear.3 mph78%29.89 "Hg10 mi
Weather by CustomWeather, © 2015

See weather overviewHow to use our weather pages